Location: Unspecified
(47.6578°N, 23.5640°E)
Time: 04:13:29
(UTC+03:00)

ISS - Pass Details

Date: 29 January 2018
Orbit: 411 x 421 km, 51.6° (Epoch: 21 October)

Event Time Altitude Azimuth Distance (km) Brightness Sun altitude
Rises 18:49:58 0° 277° (W) 2,366 1.6 -14.9°
Reaches altitude 10° 18:52:08 10° 285° (WNW) 1,510 0.1 -15.3°
Maximum altitude 18:55:22 41° 357° (N) 638 -2.9 -15.8°
Enters shadow 18:56:25 31° 41° (NE) 784 -2.8 -16.0°
